{"data":{"norad_id":68597,"epoch":"2026-05-25T04:00:03.998880Z","epoch_age_seconds":60874,"freshness":"FRESH","line1":"1 68597U 26072AA  26145.16671295 -.00010984  00000+0 -42290-3 0  9990","line2":"2 68597  51.8790 288.9679 0008462 305.4162 256.3132 15.24827939  3945","mean_motion":15.24827939,"eccentricity":0.0008462,"inclination_deg":51.879,"raan_deg":288.9679,"arg_perigee_deg":305.4162,"mean_anomaly_deg":256.3132,"bstar":-0.0004229,"rev_number":394,"period_min":94.43688452773,"perigee_km":485.48922901678,"apogee_km":497.11506783157,"semimajor_km":6869.4391484242,"source":"CELESTRAK","updated_at":"2026-05-25T13:38:07.954550Z"}}